Location: Beaver Brook Station
(42.3793°N, 71.2203°W)
Time: 04:43:59
(UTC+00:00)

X-37B - Pass Details

Date: 31 January 2021
Orbit: 383 x 391 km, 45.0° (Epoch: 27 February)

Event Time Altitude Azimuth Distance (km) Brightness Sun altitude
Rises 22:37:58 0° 287° (WNW) 2,272 5.5 -7.8°
Reaches altitude 10° 22:40:04 10° 282° (WNW) 1,416 4.5 -8.2°
Maximum altitude 22:43:10 51° 205° (SSW) 496 1.4 -8.7°
Drops below altitude 10° 22:46:16 10° 128° (SE) 1,415 3.1 -9.3°
Enters shadow 22:47:24 - 125° (SE) 1,869 3.7 -9.5°
